When you browse on this site, cookies collect data to enhance your experience and personalize the content and advertising you see.
Visit our Privacy Policy to learn more. By continuing to use the site, you agree to this use of cookies and data.
  • In United Kingdom
  • List of Countries
  • For 7 days
  • Water Temperature
  • Weather Map
  • Weather Widgets
  • user-avatar
    Login

    Hourly Weather Droylsden

    Today, 5 April, Sunday

    Time Temperature Precipitation Wind Pressure Humidity
    00:00 +5°C° 0 mm 3 mps 752 mmHg 76%
    01:00 +5°C° 0 mm 3 mps 752 mmHg 77%
    02:00 +5°C° 0 mm 3 mps 752 mmHg 79%
    03:00 +5°C° 0 mm 3 mps 751 mmHg 80%
    04:00 +5°C° 0 mm 3 mps 751 mmHg 81%
    05:00 +5°C° 0 mm 3 mps 750 mmHg 82%
    06:00 +5°C° 0 mm 3 mps 750 mmHg 83%
    07:00 +7°C° 0 mm 4 mps 750 mmHg 77%
    08:00 +9°C° 0 mm 5 mps 750 mmHg 71%
    09:00 +11°C° 0 mm 7 mps 749 mmHg 65%
    10:00 +12°C° 0 mm 7 mps 749 mmHg 62%
    11:00 +14°C° 0 mm 7 mps 748 mmHg 59%
    12:00 +15°C° 0 mm 7 mps 748 mmHg 56%
    13:00 +16°C° 0 mm 7 mps 747 mmHg 57%
    14:00 +16°C° 0 mm 7 mps 746 mmHg 57%
    15:00 +16°C° 0 mm 7 mps 746 mmHg 57%
    16:00 +16°C° 0 mm 7 mps 746 mmHg 61%
    17:00 +15°C° 0 mm 7 mps 745 mmHg 65%
    18:00 +14°C° 0 mm 6 mps 745 mmHg 69%
    19:00 +13°C° 0 mm 6 mps 745 mmHg 72%
    20:00 +13°C° 0 mm 6 mps 745 mmHg 75%
    21:00 +11°C° 0 mm 6 mps 745 mmHg 79%
    22:00 +11°C° 0 mm 6 mps 745 mmHg 80%
    23:00 +11°C° 0 mm 6 mps 744 mmHg 81%

    Tomorrow, 6 April, Monday

    Time Temperature Precipitation Wind Pressure Humidity
    00:00 +11°C° 0 mm 6 mps 744 mmHg 82%
    01:00 +11°C° 0.1 mm 7 mps 744 mmHg 81%
    02:00 +11°C° 0.1 mm 7 mps 744 mmHg 81%
    03:00 +12°C° 0.1 mm 8 mps 744 mmHg 80%
    04:00 +10°C° 0.1 mm 7 mps 745 mmHg 81%
    05:00 +9°C° 0.1 mm 6 mps 746 mmHg 81%
    06:00 +8°C° 0.1 mm 5 mps 747 mmHg 81%
    07:00 +9°C° 0 mm 6 mps 748 mmHg 77%
    08:00 +9°C° 0 mm 6 mps 749 mmHg 72%
    09:00 +10°C° 0 mm 6 mps 750 mmHg 68%
    10:00 +10°C° 0.1 mm 6 mps 751 mmHg 63%
    11:00 +11°C° 0.1 mm 6 mps 752 mmHg 59%
    12:00 +11°C° 0.1 mm 6 mps 753 mmHg 54%
    13:00 +11°C° 0 mm 6 mps 753 mmHg 53%
    14:00 +11°C° 0 mm 6 mps 754 mmHg 51%
    15:00 +11°C° 0 mm 6 mps 755 mmHg 50%
    16:00 +12°C° 0 mm 5 mps 756 mmHg 53%
    17:00 +11°C° 0 mm 4 mps 756 mmHg 57%
    18:00 +10°C° 0 mm 3 mps 757 mmHg 60%
    19:00 +9°C° 0 mm 2 mps 758 mmHg 63%
    20:00 +8°C° 0 mm 2 mps 759 mmHg 66%
    21:00 +8°C° 0 mm 1 mps 760 mmHg 69%
    22:00 +8°C° 0 mm 1 mps 760 mmHg 71%
    23:00 +7°C° 0 mm 1 mps 761 mmHg 73%

    Day after tomorrow, 7 April, Tuesday

    Time Temperature Precipitation Wind Pressure Humidity
    00:00 +7°C° 0 mm 1 mps 761 mmHg 75%
    01:00 +7°C° 0 mm 1 mps 761 mmHg 76%
    02:00 +6°C° 0 mm 1 mps 762 mmHg 76%
    03:00 +6°C° 0 mm 1 mps 762 mmHg 77%
    04:00 +6°C° 0 mm 1 mps 762 mmHg 77%
    05:00 +6°C° 0 mm 1 mps 762 mmHg 77%
    06:00 +6°C° 0 mm 1 mps 762 mmHg 77%
    07:00 +7°C° 0 mm 2 mps 763 mmHg 72%
    08:00 +8°C° 0 mm 2 mps 763 mmHg 67%
    09:00 +10°C° 0 mm 3 mps 763 mmHg 62%
    10:00 +11°C° 0 mm 3 mps 763 mmHg 60%
    11:00 +12°C° 0 mm 4 mps 763 mmHg 58%
    12:00 +13°C° 0 mm 4 mps 763 mmHg 56%
    13:00 +14°C° 0 mm 4 mps 762 mmHg 56%
    14:00 +14°C° 0 mm 4 mps 762 mmHg 56%
    15:00 +15°C° 0 mm 4 mps 762 mmHg 55%
    16:00 +14°C° 0 mm 3 mps 761 mmHg 60%
    17:00 +13°C° 0 mm 3 mps 761 mmHg 64%
    18:00 +14°C° 0 mm 2 mps 761 mmHg 69%
    19:00 +13°C° 0 mm 2 mps 761 mmHg 72%
    20:00 +10°C° 0 mm 2 mps 762 mmHg 75%
    21:00 +10°C° 0 mm 1 mps 762 mmHg 78%
    22:00 +10°C° 0 mm 1 mps 762 mmHg 78%
    23:00 +10°C° 0 mm 1 mps 762 mmHg 78%

    8 April, Wednesday

    Time Temperature Precipitation Wind Pressure Humidity
    00:00 +9°C° 0 mm 1 mps 762 mmHg 78%
    01:00 +9°C° 0 mm 1 mps 761 mmHg 79%
    02:00 +9°C° 0 mm 1 mps 761 mmHg 80%
    03:00 +8°C° 0 mm 1 mps 761 mmHg 81%
    04:00 +8°C° 0 mm 1 mps 761 mmHg 81%
    05:00 +8°C° 0 mm 1 mps 761 mmHg 82%
    06:00 +7°C° 0 mm 0 mps 761 mmHg 83%
    07:00 +10°C° 0 mm 1 mps 761 mmHg 77%
    08:00 +12°C° 0 mm 1 mps 761 mmHg 71%
    09:00 +13°C° 0 mm 1 mps 761 mmHg 66%
    10:00 +15°C° 0 mm 1 mps 760 mmHg 61%
    11:00 +16°C° 0 mm 2 mps 760 mmHg 56%
    12:00 +17°C° 0 mm 2 mps 760 mmHg 51%
    13:00 +17°C° 0 mm 2 mps 760 mmHg 51%
    14:00 +17°C° 0 mm 2 mps 759 mmHg 51%
    15:00 +17°C° 0 mm 3 mps 759 mmHg 51%
    16:00 +17°C° 0 mm 2 mps 759 mmHg 56%
    17:00 +16°C° 0 mm 2 mps 759 mmHg 61%
    18:00 +15°C° 0 mm 1 mps 759 mmHg 66%
    19:00 +14°C° 0 mm 1 mps 759 mmHg 69%
    20:00 +12°C° 0 mm 1 mps 759 mmHg 73%
    21:00 +11°C° 0 mm 1 mps 759 mmHg 76%
    22:00 +11°C° 0 mm 1 mps 759 mmHg 77%
    23:00 +9°C° 0 mm 0 mps 759 mmHg 79%

    9 April, Thursday

    Time Temperature Precipitation Wind Pressure Humidity
    00:00 +9°C° 0 mm 0 mps 759 mmHg 80%
    01:00 +8°C° 0 mm 0 mps 759 mmHg 81%
    02:00 +8°C° 0 mm 0 mps 759 mmHg 82%
    03:00 +8°C° 0 mm 0 mps 758 mmHg 83%
    04:00 +8°C° 0 mm 0 mps 758 mmHg 84%
    05:00 +8°C° 0 mm 0 mps 758 mmHg 84%
    06:00 +8°C° 0 mm 0 mps 758 mmHg 85%
    07:00 +10°C° 0 mm 0 mps 758 mmHg 79%
    08:00 +12°C° 0 mm 1 mps 758 mmHg 74%
    09:00 +14°C° 0 mm 1 mps 758 mmHg 68%
    10:00 +16°C° 0 mm 1 mps 758 mmHg 67%
    11:00 +17°C° 0 mm 2 mps 758 mmHg 65%
    12:00 +18°C° 0 mm 2 mps 758 mmHg 63%
    13:00 +18°C° 0.1 mm 2 mps 758 mmHg 62%
    14:00 +19°C° 0.1 mm 2 mps 757 mmHg 61%
    15:00 +19°C° 0.1 mm 3 mps 757 mmHg 60%
    16:00 +19°C° 0 mm 2 mps 757 mmHg 64%
    17:00 +18°C° 0 mm 2 mps 757 mmHg 68%
    18:00 +17°C° 0 mm 2 mps 757 mmHg 72%
    19:00 +16°C° 0 mm 2 mps 757 mmHg 77%
    20:00 +15°C° 0 mm 2 mps 757 mmHg 81%
    21:00 +14°C° 0 mm 2 mps 757 mmHg 86%
    22:00 +13°C° 0 mm 2 mps 757 mmHg 87%
    23:00 +13°C° 0 mm 2 mps 757 mmHg 89%

    10 April, Friday

    Time Temperature Precipitation Wind Pressure Humidity
    00:00 +12°C° 0 mm 2 mps 757 mmHg 90%
    01:00 +12°C° 0 mm 2 mps 757 mmHg 89%
    02:00 +12°C° 0 mm 2 mps 756 mmHg 89%
    03:00 +12°C° 0 mm 2 mps 756 mmHg 88%
    04:00 +12°C° 0 mm 2 mps 756 mmHg 86%
    05:00 +12°C° 0 mm 2 mps 756 mmHg 85%
    06:00 +12°C° 0 mm 2 mps 756 mmHg 84%
    07:00 +13°C° 0 mm 2 mps 756 mmHg 81%
    08:00 +13°C° 0 mm 3 mps 756 mmHg 78%
    09:00 +14°C° 0 mm 3 mps 756 mmHg 75%
    10:00 +16°C° 0.1 mm 3 mps 755 mmHg 75%
    11:00 +16°C° 0.1 mm 3 mps 755 mmHg 75%
    12:00 +17°C° 0.1 mm 3 mps 755 mmHg 75%
    13:00 +17°C° 0.1 mm 3 mps 755 mmHg 74%
    14:00 +17°C° 0.1 mm 3 mps 755 mmHg 73%
    15:00 +17°C° 0.1 mm 4 mps 755 mmHg 72%
    16:00 +15°C° 0.1 mm 4 mps 755 mmHg 76%
    17:00 +14°C° 0.1 mm 3 mps 755 mmHg 80%
    18:00 +13°C° 0.1 mm 3 mps 755 mmHg 84%
    19:00 +12°C° 0 mm 3 mps 755 mmHg 86%
    20:00 +13°C° 0 mm 2 mps 756 mmHg 88%
    21:00 +12°C° 0 mm 2 mps 756 mmHg 89%
    22:00 +10°C° 0 mm 2 mps 756 mmHg 89%
    23:00 +10°C° 0 mm 2 mps 756 mmHg 90%
    Show more